Flag for Egypt Weather past 2 weeks in Port Said, Egypt

Now
75 °F

Clear.


Feels Like: 76 °F
Forecast: 74 / 82 °F
Wind: 6 mph from North

Location: Port Said Airport

Current Time: Jul 1, 2015 at 2:31:52 AM

Latest Report: Jul 1, 2015 at 1:00 AM


Visibility: 10 mi

Pressure: 29.98 "Hg

Humidity: 78%

Dew point: 68 °F

Location of Port SaidLocation

Historic Weather in Port Said — Graph

°F

Port Said temperature yesterday

Maximum temperature yesterday: 82 °F (at 12:00 PM)
Minimum temperature yesterday: 73 °F (at 4:00 AM)
Average temperature yesterday: 77 °F

Past Weeks' High & Low Weather Summary

 TemperatureHumidityPressure
High93 °F (Jun 27, 7:00 PM)100% (Jun 16, 9:00 PM)30.01 "Hg (Jun 16, 9:00 PM)
Low72 °F (Jun 16, 3:00 AM)24% (Jun 27, 1:00 PM)29.56 "Hg (Jun 27, 4:00 PM)
Average78 °F70%29.84 "Hg
* Reported Jun 16 1:00 AM — Jul 1 1:00 AM, Port Said, Weather by CustomWeather, © 2015

Note: Actual official high and low records may vary slightly from our data, if they occured in-between our weather recording intervals... More about our weather records

Advertising

Port Said weather history for previous 24 hours

 ConditionsComfort  
Time TempWeatherWind HumidityBarometerVisibility
1:00 AM
Wed, Jul 1
75 °FClear.6 mph78%29.98 "Hg10 mi
12:00 AM75 °FMild.7 mph78%29.98 "HgN/A
11:00 PM
Tue, Jun 30
75 °FMild.12 mph78%30.01 "HgN/A
10:00 PM75 °FPassing clouds.10 mph78%30.01 "HgN/A
9:00 PM75 °FPassing clouds.12 mph78%29.98 "HgN/A
8:00 PM77 °FPassing clouds.13 mph74%29.98 "HgN/A
7:00 PM77 °FPassing clouds.9 mph74%30.01 "HgN/A
6:00 PM79 °FPassing clouds.15 mph70%29.98 "HgN/A
5:00 PM79 °FPassing clouds.13 mph70%29.98 "HgN/A
4:00 PM81 °FScattered clouds.13 mph66%29.98 "HgN/A
3:00 PM82 °FPassing clouds.10 mph58%29.98 "HgN/A
2:00 PM81 °FPassing clouds.12 mph62%29.98 "HgN/A
1:00 PM81 °FPassing clouds.9 mph62%29.98 "HgN/A
12:00 PM82 °FPassing clouds.7 mph62%29.98 "HgN/A
11:00 AM81 °FPassing clouds.8 mph62%29.98 "HgN/A
10:00 AM79 °FScattered clouds.7 mph65%29.98 "HgN/A
9:00 AM79 °FScattered clouds.6 mph65%29.98 "HgN/A
8:00 AM77 °FScattered clouds.5 mph65%29.98 "HgN/A
7:00 AM75 °FScattered clouds.3 mph57%29.95 "HgN/A
6:00 AM73 °FSunny.6 mph78%29.95 "Hg10 mi
5:00 AM73 °FSunny.5 mph78%29.95 "Hg10 mi
4:00 AM73 °FClear.5 mph78%29.92 "Hg10 mi
3:00 AM75 °FClear.6 mph74%29.92 "Hg10 mi
2:00 AM75 °FClear.5 mph74%29.92 "Hg10 mi
Weather by CustomWeather, © 2015

See weather overviewHow to use our weather pages